Location: Ostrava
(49.8330°N, 18.2830°E)
Time: 11:22:59
(UTC+02:00)

Cosmos 1400 Rocket - Visible Passes

Search period start: 23 October 2014 00:00
Search period end: 01 November 2014 23:00
Orbit: 530 x 579 km, 81.2° (Epoch: 22 October)

Date Brightness Start Highest point End Pass type
(mag) Time Alt. Az. Time Alt. Az. Time Alt. Az.
23 Oct 6.2 04:05:40 10° NE 04:06:51 11° ENE 04:08:01 10° ENE visible
23 Oct 2.8 05:40:07 10° NNW 05:44:15 88° ENE 05:48:17 10° SSE visible
23 Oct 4.0 18:05:58 10° SE 18:09:23 25° E 18:12:48 10° NE visible
23 Oct 4.6 19:42:02 10° SW 19:45:54 35° WNW 19:49:47 10° N visible
24 Oct 6.1 04:02:20 10° NE 04:04:04 12° ENE 04:05:47 10° E visible
24 Oct 2.7 05:37:16 10° NNW 05:41:23 81° W 05:45:24 10° S visible
24 Oct 4.8 19:39:19 10° SW 19:43:04 31° WNW 19:46:51 10° N visible
25 Oct 5.9 03:59:09 10° NNE 04:01:17 14° ENE 04:03:23 10° E visible
25 Oct 2.7 05:34:25 10° NNW 05:38:30 71° W 05:42:29 10° S visible
25 Oct 5.0 19:36:36 10° SW 19:40:15 28° WNW 19:43:53 10° N visible
26 Oct 5.8 02:56:02 10° NNE 02:58:28 15° ENE 03:00:53 10° E visible
26 Oct 2.7 04:31:34 10° NNW 04:35:37 62° W 04:39:33 10° S visible
26 Oct 5.2 18:33:55 10° SW 18:37:25 25° WNW 18:40:55 10° N visible
27 Oct 5.6 02:55:15 17° NE 02:55:39 17° ENE 02:58:19 10° ESE visible
27 Oct 2.8 04:31:23 36° NW 04:32:42 53° W 04:36:35 10° S visible
27 Oct 5.4 18:31:15 10° WSW 18:34:34 23° WNW 18:37:55 10° NNW visible
28 Oct 4.4 04:32:07 21° SSW 04:32:07 21° SSW 04:33:36 10° S visible
28 Oct 5.6 18:28:36 10° WSW 18:31:44 20° WNW 18:34:53 10° NNW visible
29 Oct 5.7 18:25:58 10° WSW 18:28:54 18° WNW 18:31:49 10° NNW visible
30 Oct 5.8 18:23:23 10° WSW 18:26:03 16° WNW 18:28:43 10° NNW visible
31 Oct 5.9 18:20:50 10° W 18:23:12 15° WNW 18:25:35 10° NNW visible
01 Nov 5.9 18:18:21 10° W 18:20:21 13° WNW 18:22:22 10° NNW visible
